#timestamp,LO_Frequency,Hit,StdDev 
1697824815.7,286046997.6,N
1697824835.6,286046997.4,N
1697824855.4,286046999.6,N
1697824875.3,286046999.5,N
1697824895.1,286046998.8,N
1697824896.0,286046998.8,N
1697824915.8,286046999.1,N
1697824935.7,286046998.9,N
1697824955.5,286046996.6,N
1697824975.4,286046998.9,N
1697824995.2,286046999.0,N
1697825015.0,286046998.1,N
1697825015.9,286046998.1,N
1697825035.8,286047000.9,N
1697825055.6,286047000.6,N
1697825075.5,286046998.3,N
1697825095.3,286046998.2,N
1697825115.1,286046998.8,N
1697825135.9,286046999.0,N
1697825155.7,286046998.1,N
1697825175.5,286046998.9,N
1697825195.4,286046996.5,Y
1697825215.2,286047000.8,P
1697825235.1,286047001.1,N
1697825236.0,286047001.1,N
1697825255.8,286047001.1,N
1697825275.6,286047001.1,N
1697825295.5,286047000.1,N
1697825315.3,286047000.0,N
1697825335.1,286047000.2,N
1697825355.9,286047000.3,N
1697825375.7,286047000.1,N
1697825395.6,286047002.0,N
1697825415.4,286047000.2,N
1697825435.2,286046999.9,N
1697825455.1,286046999.8,N
1697825456.0,286046999.8,N
1697825475.8,286046999.7,N
1697825495.7,286047002.7,Y
1697825515.5,286047000.1,P
1697825535.3,286047000.2,N
1697825555.2,286047002.8,P
1697825575.0,286047000.2,N
1697825575.9,286047000.2,N
1697825595.7,286046999.8,N
1697825615.6,286047001.5,N
1697825635.4,286047001.4,N
1697825655.3,286046999.7,N
1697825675.1,286047001.0,N
1697825695.8,286046998.9,N
1697825715.7,286047001.1,N
1697825735.5,286046998.4,N
1697825755.4,286047001.2,N
1697825775.2,286046998.1,N
1697825795.0,286047000.5,N
1697825795.9,286047000.5,N
1697825815.8,286046999.8,N
1697825835.6,286047000.1,N
1697825855.4,286046998.1,N
1697825875.3,286046998.6,N
1697825895.1,286046998.6,N
1697825915.9,286046999.0,N
1697825935.7,286046998.2,N
1697825955.5,286047000.2,N
1697825975.4,286047000.0,N
1697825995.2,286046999.9,N
1697826015.0,286047002.6,N
1697826016.0,286047002.6,N
1697826035.8,286047002.0,N
1697826055.6,286047002.6,N
1697826075.5,286047002.3,N
1697826095.3,286047002.0,N
1697826115.2,286047000.0,N
1697826135.9,286047002.5,N
1697826155.7,286047000.2,N
1697826175.6,286047002.6,N
1697826195.4,286046999.8,N
1697826215.2,286047000.2,N
1697826235.1,286047002.3,N
1697826236.0,286047002.3,N
1697826255.8,286046999.7,N
1697826275.7,286047001.0,N
1697826295.5,286046998.2,N
1697826315.9,286047001.0,N
1697826335.7,286046999.9,N
1697826355.6,286047002.8,N
1697826375.4,286047003.8,N
1697826395.2,286047003.7,N
1697826415.1,286047003.9,N
1697826416.0,286047003.9,N
1697826435.8,286047002.2,N
1697826455.7,286047004.3,N
1697826475.5,286047003.6,N
1697826495.3,286047003.6,N
1697826515.2,286047003.1,N
1697826535.0,286047003.3,N
1697826535.9,286047003.3,N
1697826555.8,286047003.6,N
1697826575.6,286047004.3,N
1697826595.4,286047001.9,N
1697826615.3,286047001.9,N
1697826635.1,286047001.7,N
1697826655.9,286047001.4,N
1697826675.7,286047003.7,N
1697826695.5,286047001.7,N
1697826715.4,286047001.3,N
1697826735.2,286047002.4,N
1697826755.0,286047002.0,N
1697826755.9,286047002.0,N
1697826775.8,286047002.4,N
1697826795.6,286047001.8,N
1697826815.5,286047003.7,N
1697826835.3,286047004.4,Y
1697826855.1,286046998.3,P
1697826875.9,286047001.2,N
1697826895.7,286046998.4,N
1697826915.6,286046998.1,N
1697826935.4,286047000.9,N
1697826955.2,286047000.7,N
1697826975.1,286047000.9,N
1697826976.0,286047000.9,N
1697826995.8,286047000.2,N
1697827015.7,286047000.1,N
1697827035.5,286046999.9,N
1697827055.3,286047000.2,N
1697827075.2,286046999.8,N
1697827095.0,286046998.3,N
1697827095.9,286046998.3,N
1697827115.7,286046998.9,N
1697827135.6,286046998.6,N
1697827155.4,286047000.3,N
1697827175.3,286047000.3,N
1697827195.1,286047000.4,N
1697827196.0,286047000.4,N
1697827215.8,286047002.3,N
1697827235.7,286046999.7,N
1697827255.5,286046999.7,N
1697827275.3,286047000.7,N
1697827295.2,286046998.7,N
1697827315.0,286047001.0,N
1697827315.9,286047001.0,N
1697827335.8,286047002.8,N
1697827355.6,286047000.3,N
1697827375.4,286047000.6,N
1697827395.3,286047001.0,N
1697827415.1,286047000.6,N
1697827435.9,286047000.0,N
1697827455.7,286047000.3,N
1697827475.5,286046999.8,N
1697827495.4,286046999.7,N
1697827515.2,286047000.0,N
1697827535.0,286047001.1,N
1697827535.9,286047001.1,N
1697827555.8,286047001.2,N
1697827575.6,286046998.5,N
1697827595.5,286046998.1,N
1697827615.3,286046999.2,N
1697827635.1,286046999.4,N
1697827655.9,286046998.7,N
1697827675.7,286046999.5,N
1697827695.6,286046997.0,N
1697827715.4,286046997.8,N
1697827735.2,286046997.9,N
1697827755.1,286046995.0,Y
1697827756.0,286046995.0,P
1697827775.8,286046995.3,N
1697827795.6,286046995.8,N
1697827815.5,286046995.4,N
1697827835.3,286046995.6,N
1697827855.2,286046995.4,N
1697827875.9,286046995.9,N
1697827895.7,286046995.6,N
1697827915.6,286046995.6,Y
1697827935.4,286046998.4,P
1697827955.2,286046997.0,N
1697827975.1,286046999.5,N
1697827976.0,286046999.5,N
1697827995.8,286046999.6,N
1697828015.7,286046999.1,N
1697828035.5,286046996.6,N
1697828055.3,286046997.7,N
1697828075.2,286046995.0,Y
1697828095.0,286046999.4,P
1697828095.9,286046999.4,N
1697828115.8,286046999.5,N
1697828135.6,286046999.3,N
1697828155.4,286046998.4,Y
1697828175.3,286046996.9,P
1697828195.1,286046996.8,N
1697828215.8,286046995.3,P
1697828235.7,286046997.0,N
1697828255.5,286046997.7,N
1697828275.4,286046997.4,N
1697828295.2,286046997.1,N
1697828315.0,286046996.5,Y
1697828315.9,286046996.5,P
1697828335.8,286047002.4,P
1697828355.6,286046999.8,N
1697828375.5,286047002.8,N
1697828395.3,286047001.0,N
